X  Close Light rain until later this morning, starting again tonight.
Conditions Temperature Feels Precipitation Wind Wind Direction UV index Pressure
04:00 rain Possible Drizzle 14° 0.11 mm 28% 10-18 mph SW SW - 1001,8
05:00 rain Possible Drizzle 14° 0.04 mm 40% 11-18 mph SW SW - 1001,5
06:00 rain Possible Light Rain 14° 0.62 mm 62% 11-18 mph SW SW - 1001,1
07:00 rain Light Rain 14° 0.9 mm 67% 11-17 mph SSW SSW - 1001,0
08:00 rain Light Rain 14° 0.6 mm 67% 10-14 mph SSE SSE - 1000,9
09:00 rain Possible Light Rain 14° 0.31 mm 56% 10-11 mph NW NW uv-1 1001,2
10:00 rain Possible Light Rain 15° 0.28 mm 43% 9-10 mph West West uv-1 1001,3
11:00 cloudy Overcast 15° 0.19 mm 22% 9-10 mph SW SW uv-2 1001,4
12:00 cloudy Overcast 15° 0.11 mm 15% 10-10 mph NNW NNW uv-3 1001,6
13:00 partly-cloudy-day Mostly Cloudy 15° 0.12 mm 14% 10-11 mph NW NW uv-3 1001,7
14:00 cloudy Overcast 15° 0.08 mm 13% 10-12 mph NW NW uv-3 1001,5
15:00 cloudy Overcast 15° 0.04 mm 11% 10-13 mph NW NW uv-2 1001,3
16:00 cloudy Overcast 14° 0.03 mm 8% 10-14 mph NW NW uv-1 1001,1
17:00 cloudy Overcast 13° 0.03 mm 11% 11-16 mph WNW WNW uv-1 1000,9
18:00 cloudy Overcast 13° 0.05 mm 13% 13-19 mph West West - 1000,8
19:00 cloudy Overcast 12° 0.07 mm 17% 13-21 mph WNW WNW - 1000,7
20:00 partly-cloudy-night Mostly Cloudy 11° 0.05 mm 17% 14-21 mph NNW NNW - 1001,0
21:00 partly-cloudy-night Mostly Cloudy 11° 0.06 mm 19% 13-21 mph SSW SSW - 1001,5
22:00 partly-cloudy-night Mostly Cloudy 11° 0.07 mm 19% 13-20 mph West West - 1001,7
23:00 partly-cloudy-night Partly Cloudy 10° 0.03 mm 14% 12-19 mph NW NW - 1001,5
00:00 partly-cloudy-night Partly Cloudy 9° - 11-18 mph SSW SSW - 1001,2
01:00 partly-cloudy-night Partly Cloudy 9° - 11-19 mph SSW SSW - 1000,0
02:00 clear-night Clear 9° 0.07 mm 23% 12-23 mph SSW SSW - 999,2
03:00 rain Possible Light Rain 9° 5° 0.44 mm 46% 15-29 mph SSW SSW - 997,7
04:00 rain Light Rain 9° 5° 0.83 mm 68% 17-33 mph South South - 996,5
05:00 rain Possible Light Rain 9° 5° 0.78 mm 64% 18-33 mph SSW SSW - 995,8
06:00 rain Possible Light Rain 9° 6° 0.56 mm 59% 19-30 mph SW SW - 995,3
07:00 rain Possible Light Rain 10° 6° 0.44 mm 53% 20-29 mph SW SW - 994,9
08:00 rain Possible Light Rain 10° 0.36 mm 48% 21-28 mph SW SW - 995,1
09:00 rain Possible Light Rain 11° 0.29 mm 37% 21-28 mph SW SW uv-1 995,3
10:00 rain Possible Light Rain 11° 0.26 mm 31% 21-28 mph SW SW uv-1 995,3
11:00 rain Possible Light Rain 12° 0.24 mm 28% 21-28 mph SW SW uv-2 995,1
12:00 rain Possible Drizzle 12° 0.22 mm 25% 21-28 mph SW SW uv-2 994,8
13:00 cloudy Overcast 13° 0.22 mm 21% 21-27 mph SW SW uv-2 994,4
14:00 partly-cloudy-day Mostly Cloudy 14° 0.2 mm 18% 20-26 mph SW SW uv-2 993,7
15:00 partly-cloudy-day Mostly Cloudy 14° 0.17 mm 17% 19-25 mph SW SW uv-2 992,9
16:00 partly-cloudy-day Mostly Cloudy 14° 0.15 mm 17% 17-24 mph SW SW uv-1 992,1
17:00 partly-cloudy-day Partly Cloudy 13° 0.12 mm 18% 16-25 mph SSW SSW uv-1 991,4
18:00 partly-cloudy-day Partly Cloudy 12° 0.08 mm 23% 16-26 mph SSW SSW - 990,8
19:00 partly-cloudy-night Partly Cloudy 11° 0.06 mm 25% 15-26 mph South South - 990,5
20:00 partly-cloudy-night Partly Cloudy 10° 0.07 mm 25% 12-20 mph SE SE - 990,7
21:00 partly-cloudy-night Partly Cloudy 10° 0.11 mm 23% 9-12 mph ENE ENE - 991,3
22:00 partly-cloudy-night Mostly Cloudy 9° 0.15 mm 24% 7-9 mph NNE NNE - 992,1
23:00 rain Possible Drizzle 9° 0.15 mm 26% 9-12 mph North North - 993,1
00:00 rain Possible Drizzle 9° 0.14 mm 30% 12-20 mph North North - 994,4
01:00 rain Possible Drizzle 9° 6° 0.13 mm 32% 15-25 mph North North - 995,7
02:00 rain Possible Drizzle 9° 5° 0.07 mm 28% 15-26 mph NNW NNW - 997,0
03:00 partly-cloudy-night Partly Cloudy 8° 5° 0.02 mm 19% 15-24 mph NNW NNW - 998,3
04:00 partly-cloudy-night Partly Cloudy 8° 4° - 15-24 mph NNW NNW - 999,8